Hourly Weather Szoltany

Today, 7 July, Tuesday

Time Temperature Precipitation Wind Pressure Humidity
00:00 +13°C° 0 mm 2 mps 739 mmHg 90%
01:00 +13°C° 0 mm 2 mps 739 mmHg 89%
02:00 +12°C° 0 mm 2 mps 739 mmHg 88%
03:00 +12°C° 0 mm 2 mps 740 mmHg 88%
04:00 +11°C° 0 mm 3 mps 740 mmHg 88%
05:00 +11°C° 0 mm 3 mps 740 mmHg 88%
06:00 +12°C° 0 mm 3 mps 740 mmHg 86%
07:00 +13°C° 0 mm 4 mps 741 mmHg 83%
08:00 +14°C° 0 mm 4 mps 741 mmHg 80%
09:00 +14°C° 0.1 mm 4 mps 741 mmHg 76%
10:00 +15°C° 0.1 mm 5 mps 741 mmHg 73%
11:00 +16°C° 0.1 mm 5 mps 741 mmHg 69%
12:00 +16°C° 0.1 mm 5 mps 741 mmHg 69%
13:00 +16°C° 0.1 mm 5 mps 741 mmHg 69%
14:00 +16°C° 0.1 mm 5 mps 741 mmHg 68%
15:00 +16°C° 0.1 mm 5 mps 741 mmHg 69%
16:00 +15°C° 0.1 mm 5 mps 741 mmHg 69%
17:00 +15°C° 0.1 mm 5 mps 742 mmHg 69%
18:00 +14°C° 0.1 mm 5 mps 742 mmHg 75%
19:00 +14°C° 0.1 mm 4 mps 742 mmHg 80%
20:00 +13°C° 0.1 mm 3 mps 742 mmHg 85%
21:00 +12°C° 0 mm 3 mps 742 mmHg 88%
22:00 +10°C° 0 mm 3 mps 742 mmHg 91%
23:00 +9°C° 0 mm 3 mps 742 mmHg 94%

Tomorrow, 8 July, Wednesday

Time Temperature Precipitation Wind Pressure Humidity
00:00 +9°C° 0 mm 3 mps 742 mmHg 94%
01:00 +9°C° 0 mm 3 mps 742 mmHg 94%
02:00 +8°C° 0 mm 3 mps 742 mmHg 94%
03:00 +8°C° 0 mm 3 mps 742 mmHg 94%
04:00 +8°C° 0 mm 3 mps 742 mmHg 93%
05:00 +8°C° 0 mm 3 mps 742 mmHg 92%
06:00 +10°C° 0 mm 4 mps 741 mmHg 86%
07:00 +12°C° 0 mm 5 mps 741 mmHg 80%
08:00 +13°C° 0 mm 5 mps 741 mmHg 74%
09:00 +13°C° 0.1 mm 5 mps 741 mmHg 76%
10:00 +13°C° 0.1 mm 5 mps 741 mmHg 78%
11:00 +13°C° 0.1 mm 5 mps 741 mmHg 79%
12:00 +14°C° 0.4 mm 5 mps 741 mmHg 78%
13:00 +15°C° 0.4 mm 5 mps 741 mmHg 76%
14:00 +16°C° 0.4 mm 5 mps 741 mmHg 75%
15:00 +16°C° 0.6 mm 5 mps 741 mmHg 76%
16:00 +15°C° 0.6 mm 5 mps 741 mmHg 78%
17:00 +15°C° 0.6 mm 4 mps 741 mmHg 79%
18:00 +14°C° 0.5 mm 4 mps 741 mmHg 83%
19:00 +13°C° 0.5 mm 3 mps 741 mmHg 86%
20:00 +14°C° 0.5 mm 2 mps 741 mmHg 90%
21:00 +13°C° 0.1 mm 2 mps 741 mmHg 91%
22:00 +12°C° 0.1 mm 2 mps 742 mmHg 92%
23:00 +12°C° 0.1 mm 2 mps 742 mmHg 93%

Day after tomorrow, 9 July, Thursday

Time Temperature Precipitation Wind Pressure Humidity
00:00 +10°C° 0 mm 2 mps 742 mmHg 94%
01:00 +9°C° 0 mm 2 mps 742 mmHg 95%
02:00 +9°C° 0 mm 3 mps 743 mmHg 95%
03:00 +8°C° 0 mm 3 mps 743 mmHg 95%
04:00 +8°C° 0 mm 3 mps 743 mmHg 95%
05:00 +8°C° 0 mm 3 mps 743 mmHg 95%
06:00 +8°C° 0 mm 4 mps 743 mmHg 92%
07:00 +11°C° 0 mm 4 mps 744 mmHg 89%
08:00 +13°C° 0 mm 5 mps 744 mmHg 86%
09:00 +14°C° 0.1 mm 5 mps 745 mmHg 81%
10:00 +15°C° 0.1 mm 5 mps 745 mmHg 76%
11:00 +16°C° 0.1 mm 5 mps 745 mmHg 72%
12:00 +17°C° 0.2 mm 5 mps 745 mmHg 69%
13:00 +17°C° 0.2 mm 5 mps 745 mmHg 67%
14:00 +19°C° 0.2 mm 5 mps 745 mmHg 64%
15:00 +19°C° 0.2 mm 5 mps 745 mmHg 66%
16:00 +19°C° 0.2 mm 4 mps 745 mmHg 68%
17:00 +18°C° 0.2 mm 4 mps 745 mmHg 69%
18:00 +17°C° 0 mm 3 mps 745 mmHg 74%
19:00 +16°C° 0 mm 2 mps 746 mmHg 79%
20:00 +15°C° 0 mm 1 mps 746 mmHg 84%
21:00 +14°C° 0 mm 1 mps 746 mmHg 86%
22:00 +13°C° 0 mm 1 mps 746 mmHg 87%
23:00 +12°C° 0 mm 1 mps 746 mmHg 89%

10 July, Friday

Time Temperature Precipitation Wind Pressure Humidity
00:00 +12°C° 0 mm 1 mps 746 mmHg 90%
01:00 +10°C° 0 mm 2 mps 746 mmHg 92%
02:00 +10°C° 0 mm 2 mps 746 mmHg 93%
03:00 +10°C° 0 mm 3 mps 745 mmHg 92%
04:00 +10°C° 0 mm 3 mps 745 mmHg 92%
05:00 +10°C° 0 mm 3 mps 745 mmHg 91%
06:00 +12°C° 0 mm 4 mps 745 mmHg 87%
07:00 +14°C° 0 mm 4 mps 745 mmHg 83%
08:00 +16°C° 0 mm 5 mps 744 mmHg 79%
09:00 +17°C° 0 mm 5 mps 744 mmHg 75%
10:00 +20°C° 0 mm 6 mps 744 mmHg 70%
11:00 +21°C° 0 mm 6 mps 744 mmHg 66%
12:00 +22°C° 0 mm 6 mps 743 mmHg 65%
13:00 +23°C° 0 mm 7 mps 743 mmHg 65%
14:00 +23°C° 0 mm 7 mps 742 mmHg 64%
15:00 +23°C° 0 mm 7 mps 742 mmHg 67%
16:00 +23°C° 0 mm 6 mps 741 mmHg 70%
17:00 +23°C° 0 mm 6 mps 740 mmHg 73%
18:00 +22°C° 0.6 mm 7 mps 740 mmHg 78%
19:00 +22°C° 0.6 mm 7 mps 739 mmHg 83%
20:00 +21°C° 0.6 mm 7 mps 738 mmHg 88%
21:00 +19°C° 1.7 mm 6 mps 739 mmHg 89%
22:00 +18°C° 1.7 mm 4 mps 739 mmHg 91%
23:00 +16°C° 1.7 mm 3 mps 739 mmHg 93%

11 July, Saturday

Time Temperature Precipitation Wind Pressure Humidity
00:00 +15°C° 0 mm 4 mps 740 mmHg 93%
01:00 +15°C° 0 mm 4 mps 740 mmHg 93%
02:00 +15°C° 0 mm 5 mps 741 mmHg 93%
03:00 +13°C° 0 mm 5 mps 741 mmHg 92%
04:00 +12°C° 0 mm 4 mps 742 mmHg 92%
05:00 +11°C° 0 mm 4 mps 742 mmHg 91%
06:00 +12°C° 0 mm 5 mps 743 mmHg 87%
07:00 +12°C° 0 mm 5 mps 743 mmHg 83%
08:00 +13°C° 0 mm 6 mps 744 mmHg 80%
09:00 +14°C° 0 mm 6 mps 744 mmHg 75%
10:00 +15°C° 0 mm 5 mps 745 mmHg 71%
11:00 +16°C° 0 mm 5 mps 745 mmHg 67%
12:00 +16°C° 0 mm 5 mps 745 mmHg 65%
13:00 +17°C° 0 mm 5 mps 745 mmHg 64%
14:00 +17°C° 0 mm 5 mps 745 mmHg 62%
15:00 +17°C° 0 mm 5 mps 745 mmHg 63%
16:00 +17°C° 0 mm 5 mps 745 mmHg 65%
17:00 +17°C° 0 mm 5 mps 745 mmHg 66%
18:00 +17°C° 0 mm 4 mps 745 mmHg 71%
19:00 +16°C° 0 mm 3 mps 745 mmHg 76%
20:00 +14°C° 0 mm 3 mps 745 mmHg 82%
21:00 +13°C° 0 mm 3 mps 745 mmHg 85%
22:00 +12°C° 0 mm 3 mps 745 mmHg 88%
23:00 +11°C° 0 mm 3 mps 745 mmHg 92%

12 July, Sunday

Time Temperature Precipitation Wind Pressure Humidity
00:00 +10°C° 0 mm 3 mps 745 mmHg 92%
01:00 +10°C° 0 mm 3 mps 745 mmHg 92%
02:00 +10°C° 0 mm 3 mps 745 mmHg 93%
03:00 +9°C° 0 mm 3 mps 745 mmHg 93%
04:00 +9°C° 0 mm 3 mps 745 mmHg 92%
05:00 +9°C° 0 mm 3 mps 745 mmHg 92%
06:00 +11°C° 0 mm 4 mps 745 mmHg 86%
07:00 +12°C° 0 mm 4 mps 745 mmHg 80%
08:00 +14°C° 0 mm 5 mps 746 mmHg 75%
09:00 +15°C° 0.1 mm 5 mps 746 mmHg 71%
10:00 +15°C° 0.1 mm 5 mps 746 mmHg 68%
11:00 +16°C° 0.1 mm 5 mps 746 mmHg 65%
12:00 +16°C° 0.1 mm 5 mps 746 mmHg 64%
13:00 +17°C° 0.1 mm 6 mps 746 mmHg 64%
14:00 +17°C° 0.1 mm 6 mps 746 mmHg 63%
15:00 +16°C° 0.2 mm 6 mps 746 mmHg 67%
16:00 +16°C° 0.2 mm 5 mps 746 mmHg 70%
17:00 +15°C° 0.2 mm 5 mps 746 mmHg 74%
18:00 +14°C° 0.1 mm 4 mps 746 mmHg 79%
19:00 +13°C° 0.1 mm 4 mps 746 mmHg 84%
20:00 +12°C° 0.1 mm 3 mps 747 mmHg 88%
21:00 +11°C° 0 mm 3 mps 747 mmHg 91%
22:00 +10°C° 0 mm 3 mps 747 mmHg 93%
23:00 +9°C° 0 mm 3 mps 747 mmHg 96%
Show more